HAWK-7C

导读 | 豆包AI

HAWK-7C是美国HE360运营的低轨军用侦察卫星,于2023年4月15日发射入轨。作为HAWK系列卫星的一员,该卫星主要承担无线电频谱监测、信号情报收集与空中交通监视任务,依托近地轨道优势可实现大范围高频度感知。卫星采用创新性水推进系统进行轨道机动,具备灵活的姿态调整能力,是美国商业航天支撑军事天基感知体系的典型应用,服役至今已持续为美方提供空间态势与电磁领域情报支持。

基本信息
目录编号:
56200
目录名称:
HAWK-7C
国际标识:
2023-054Y
轨道中心:
EARTH
卫星名称:
HAWK-7C
卫星全名:
--
卫星状态:
在轨 (已飞行1054 天)
发射日期:
2023-04-15 UTC
国别 :
美国 (US)
星等 :
--
轨道信息
数据来源 国际轨道数据
星历时间: 2026-03-04T10:46:44+0800
8小时前
查看轨道信息
半长轴: 6865.592km
偏心率: 0.0003969
轨道倾角: 97.285°
近地点辐角 63.977°
升交点赤经 312.153°
平近点角 296.188°
近地点: 484.73km
远地点: 490.18km
周期: 94.358分钟
每日圈数: 15.2611
详细信息
使用方式:
暂无
2D轨道图
3D轨道图
轨道高度分析图
轨道倾角分析图
轨道综合分析图
查看轨道综合分析图